Weather in Baykalovo

Russia / Tyumen Oblast     57°46′32″N   67°38′24″E
В апреле 2022 года жителям России запретили посещать сайт meteo.paraplan.net по решению Генеральной прокуратуры. Аудитория сайта уменьшилась в 10 раз. Владельцы сайта не видят смысла в поддержке погодного сервера в таких условиях. Сайт будет закрыт в октябре.
temp.,
°C
wind,
m/s
gust,
m/s
humid.,
%
clouds,
%
prec.,
mm/h
press.,
hPa
HPBL,
m
30 september, fri
fri3023:00−4n22865 0.0 103218
02:00−5nnw22905 0.0 103326
05:00−5nnw23895 0.0 103452
08:00−3nnw24755 0.0 1035164
11:00+2n23515 0.0 1036805
14:00+5nnw224292 0.0 10361514
17:00+3nnw115058 0.0 103617
20:00−2nnw11695 0.0 103710
1 october, sat
sat123:00−3nnw01735 0.0 103810
02:00−4wsw11765 0.0 103910
05:00−4wsw11795 0.0 103910
08:00−2sw12676 0.0 104096
11:00+4ssw23494 0.0 1039759
14:00+6ssw33435 0.0 10381267
17:00+4ssw235525 0.0 103751
20:00−1ssw347636 0.0 103756
2 october, sun
sun223:00−2s248455 0.0 103767
02:00−3sse368476 0.0 1036109
05:00−3sse378037 0.0 1036137
08:00−1sse39675 0.0 1035231
11:00+6s57415 0.0 1035623
14:00+9s57365 0.0 10331055
17:00+7s49465 0.0 1032419
20:00+2s411615 0.0 1032228
3 october, mon
mon323:00+1s411645 0.0 1031245
02:00+1s412625 0.0 1031266
05:00+1s4126289 0.0 1030265
08:00+2s51356100 0.0 1030367
11:00+8s6123948 0.0 1030576
14:00+11s6113478 0.0 1029811
17:00+9ssw6124391 0.0 1028614
20:00+7ssw51450100 0.0 1029485
4 october, tue
tue423:00+7ssw51448100 0.0 1029470
02:00+7ssw51351100 0.1 1028421
05:00+7sw41152100 0.1 1029441
08:00+6ssw41066100 0.4 1030341
11:00+7ssw3963100 0.6 1030293
14:00+13sw475197 0.0 1030554
17:00+12ssw226394 0.0 103129
20:00+11sw3876100 0.0 1032164